Theta_e
304 305 305 304 303 303 302 302 302 302 301 301 301 301 304 304 304 303 303 305 306 307 307 309 314 320 322 326 327 324 323 331 332 339 339 335 336 337 339 336 331 335 334 334 336 338 335 334 336 341 342 339 341 341
304 305 304 303 303 302 302 302 302 301 301 301 301 301 302 304 304 304 304 304 305 304 305 305 305 305 308 315 319 320 324 324 328 338 338 340 344 337 339 334 335 339 330 334 337 335 335 336 340 339 336 344 344 342
305 305 304 303 302 302 302 302 302 302 301 301 301 301 302 302 303 303 304 303 303 302 303 304 307 307 308 309 308 316 320 320 327 332 335 338 343 337 342 341 340 339 334 340 340 338 336 335 336 334 337 344 345 343
305 305 303 303 302 302 302 302 302 302 301 301 301 301 302 302 302 303 303 303 302 302 302 306 306 306 309 307 309 309 316 322 326 331 333 336 339 333 340 337 340 339 337 341 340 340 336 337 336 336 339 341 346 341
305 305 303 303 302 302 302 302 302 302 302 301 301 301 301 301 301 303 303 303 303 302 304 304 304 307 315 309 311 309 312 314 317 324 334 338 333 336 335 336 340 336 342 342 341 337 337 337 335 335 340 344 343 336
305 304 303 302 302 302 302 302 302 302 302 302 302 301 301 301 302 302 302 306 306 304 303 307 307 309 313 319 317 311 312 314 316 319 321 326 330 334 339 340 337 336 336 335 338 336 336 335 335 338 341 341 340 342
305 303 302 302 302 302 302 302 302 302 302 302 301 301 301 302 302 303 302 303 303 305 304 308 312 314 316 316 312 313 314 318 319 322 330 332 333 333 337 339 336 334 335 335 335 335 337 337 338 338 338 338 338 339
304 303 302 302 302 302 302 302 302 302 302 302 302 302 302 302 302 303 304 304 303 303 304 309 313 316 321 323 321 317 317 318 321 322 328 332 332 333 335 334 334 334 334 336 335 336 335 335 335 334 334 334 337 336
303 302 302 302 302 302 302 302 302 302 302 302 302 302 302 304 304 305 307 308 307 304 308 310 314 319 319 320 325 323 319 323 328 329 335 334 334 334 333 333 332 333 336 337 333 332 332 332 331 332 334 336 337 335
303 302 302 302 302 302 302 302 302 302 302 302 302 304 307 307 306 305 308 308 305 304 305 308 312 317 315 317 323 328 329 333 332 333 333 336 336 331 331 329 329 331 334 334 333 333 331 330 330 329 329 332 337 335
302 302 302 302 302 301 301 301 301 301 302 302 304 304 306 305 304 307 310 309 307 307 306 307 310 312 312 317 321 319 332 334 335 336 337 338 337 335 331 330 329 329 329 334 335 334 335 337 336 336 333 327 334 334
302 302 302 302 301 301 301 301 301 301 303 302 302 302 302 304 308 311 312 313 312 314 313 314 315 312 316 314 323 327 331 332 333 333 336 336 334 329 330 330 330 331 329 331 333 333 336 334 333 333 333 330 334 333
302 302 302 302 301 301 301 301 302 302 302 303 302 303 304 307 311 311 311 315 316 317 317 318 320 320 320 320 325 329 332 335 333 334 335 336 334 331 329 331 331 331 330 333 333 332 332 335 335 336 333 334 333 332
302 302 301 301 301 302 301 301 301 302 302 302 304 305 307 309 311 312 313 313 311 313 316 316 318 320 322 326 328 331 332 333 335 336 336 335 331 327 329 330 331 332 333 332 333 331 332 333 333 331 334 333 332 330
302 301 301 302 303 302 301 301 301 302 301 303 305 305 307 307 307 309 309 309 311 314 315 318 321 320 325 325 327 330 332 332 334 334 333 331 331 334 329 331 334 333 332 332 332 333 334 335 335 334 332 330 327 324
301 301 301 302 303 301 301 301 301 301 301 302 303 304 305 306 307 308 310 310 310 312 314 318 321 321 325 326 328 332 332 333 333 331 329 332 336 334 328 332 334 333 334 334 334 334 334 334 334 332 329 327 325 324
301 301 303 303 301 300 301 301 301 302 302 303 304 305 305 305 305 306 306 308 308 308 318 320 324 322 325 327 330 329 331 330 330 336 337 336 336 333 328 332 335 333 332 333 333 332 332 333 332 329 327 326 325 323
300 301 301 301 300 300 302 302 301 302 302 303 303 304 304 304 305 306 305 306 307 312 318 320 318 322 328 329 331 331 330 330 332 334 332 333 333 330 332 334 334 333 333 334 334 334 333 332 331 328 327 326 324 322
303 303 303 303 303 302 302 304 302 302 302 302 303 303 304 305 307 308 309 310 309 308 311 319 321 323 327 327 328 327 327 327 330 332 330 332 332 333 335 335 334 333 334 333 333 333 334 332 330 328 326 325 323 321
304 304 304 303 303 303 302 304 304 303 304 305 304 306 307 309 310 310 311 312 314 317 320 322 322 322 322 325 325 326 328 329 329 332 330 330 331 331 333 333 334 333 333 332 333 334 333 330 328 327 326 324 322 321
305 306 306 304 304 303 303 304 305 306 307 308 309 309 311 311 313 315 318 317 319 320 323 321 322 321 321 323 326 328 329 330 331 333 333 329 330 332 333 333 332 331 333 332 332 331 330 329 327 325 324 323 322 320
306 306 305 305 305 305 305 305 305 306 306 308 309 310 313 315 317 318 317 319 320 321 320 320 321 322 323 325 328 328 329 333 333 332 331 330 329 331 332 334 333 332 331 331 330 329 328 327 325 324 324 322 320 318
305 306 306 306 306 306 306 306 307 309 311 313 314 315 316 316 313 313 319 320 321 322 322 322 321 322 324 326 329 328 331 332 331 330 331 330 330 331 332 333 333 332 330 329 328 327 326 325 323 319 317 317 316 315
306 305 306 306 306 308 308 309 308 310 311 313 315 317 318 317 317 319 321 319 321 321 323 322 321 322 324 327 329 329 329 331 330 330 330 330 330 331 332 332 331 330 329 327 326 325 323 319 315 315 314 314 315 315
306 306 305 304 307 308 309 310 310 312 314 315 315 317 318 316 320 319 321 319 322 326 325 325 326 325 326 328 328 329 330 331 332 331 329 330 330 330 330 330 329 328 327 326 324 320 316 315 317 318 319 319 319 319
305 306 304 307 308 308 309 310 312 313 312 314 316 316 317 319 320 322 322 321 323 325 326 328 325 325 326 326 327 328 330 331 330 331 331 330 330 330 329 328 327 327 327 322 319 316 318 318 318 319 319 319 320 319
306 307 306 306 307 308 309 310 310 310 313 314 317 317 318 321 323 320 319 319 324 324 325 327 326 325 325 326 329 329 329 330 331 331 331 331 330 330 330 329 327 325 320 318 317 319 319 319 320 321 319 316 315 315
307 308 308 308 307 307 309 310 311 313 314 314 316 319 318 322 321 317 317 319 326 324 325 324 324 327 329 329 329 328 330 330 331 331 330 330 330 330 328 326 324 321 320 319 320 320 321 322 320 317 317 317 317 317
307 308 308 308 309 309 309 310 311 311 313 315 316 318 319 315 315 316 318 325 325 325 326 327 328 328 328 329 328 328 329 329 330 331 331 330 329 325 323 322 322 322 322 322 322 322 320 318 317 318 318 319 318 317
308 307 309 309 311 312 312 310 309 309 310 311 313 314 314 315 316 318 324 326 325 326 327 327 328 328 328 328 329 330 330 330 331 331 328 327 326 324 324 324 323 323 323 323 323 319 318 318 319 319 319 318 318 318
309 308 310 311 311 312 311 311 311 312 312 312 313 313 314 316 319 323 326 325 326 325 326 326 326 328 328 329 329 330 331 330 331 331 327 326 327 328 328 328 327 324 324 324 322 319 319 320 320 320 319 318 318 318
310 310 311 312 313 313 313 313 314 314 314 315 316 317 319 320 322 324 326 324 323 325 325 325 326 328 329 330 330 330 330 329 329 329 329 329 329 326 326 325 325 325 324 322 322 321 321 321 321 321 320 319 318 318
312 312 312 313 316 317 317 315 317 317 317 318 320 321 322 323 325 324 326 325 324 325 327 325 327 329 329 330 330 329 330 330 330 330 329 328 327 326 326 326 324 320 319 319 320 320 320 319 319 319 319 318 318 317
Wind_Speed
14 15 15 16 15 14 14 14 14 14 14 14 14 15 14 13 13 13 8 5 5 6 19 20 16 7 6 4 3 5 6 2 3 4 3 2 3 1 3 1 2 5 5 3 3 4 7 10 10 10 9 3 24 25
14 15 15 15 14 13 13 15 15 14 14 14 14 13 13 12 11 13 8 9 11 12 15 26 32 33 27 24 14 7 4 4 4 3 2 2 3 2 3 7 2 4 3 2 6 5 3 22 5 12 8 10 23 29
13 13 14 14 13 14 15 15 15 14 14 14 13 13 13 13 11 11 15 15 11 10 23 13 7 12 10 16 32 10 6 10 4 4 3 2 5 2 3 4 3 5 5 3 2 6 12 14 20 12 12 12 21 26
13 14 14 15 14 15 15 15 16 15 14 13 13 14 14 13 12 12 15 16 14 7 6 10 7 10 11 25 20 30 23 4 3 6 4 3 3 3 2 3 3 2 7 3 6 13 10 17 18 13 12 18 23 23
14 14 15 15 15 15 16 15 15 14 13 13 14 13 13 14 15 16 19 14 12 9 6 16 38 20 5 14 15 28 32 30 16 6 3 3 2 2 1 2 4 7 6 5 4 2 6 4 6 18 16 20 34 33
14 15 15 15 16 16 16 15 15 14 14 14 14 14 14 15 17 16 4 4 7 14 5 5 9 16 11 10 13 21 27 17 15 8 7 6 4 3 3 3 7 12 11 12 5 4 10 13 8 11 17 19 25 32
14 14 15 16 16 16 15 15 15 15 14 14 14 14 14 15 16 10 5 5 9 3 3 8 8 6 9 3 5 10 18 9 9 7 6 5 4 7 3 5 7 6 11 14 16 12 7 4 4 12 16 21 25 27
15 14 15 15 16 15 14 14 15 15 14 14 14 16 17 17 19 18 8 8 14 9 5 4 6 8 5 3 3 8 9 12 11 7 4 5 5 5 6 14 21 18 13 12 10 13 7 8 14 17 19 24 28 29
15 14 14 14 14 13 13 14 15 15 15 15 15 16 18 4 2 1 3 6 10 8 4 5 3 4 9 5 1 6 8 6 6 6 5 8 6 7 11 19 21 13 11 8 6 9 13 15 17 20 23 26 29 30
14 14 14 13 13 13 14 14 14 13 13 13 11 4 2 2 2 10 3 4 8 8 7 5 5 5 7 4 3 3 7 4 6 7 9 5 6 20 21 23 21 15 11 10 17 19 22 22 22 18 15 23 29 32
14 13 13 12 12 12 13 12 13 13 10 4 2 3 4 5 6 4 5 7 6 5 8 9 15 13 10 5 3 6 3 5 5 5 7 5 5 13 32 41 40 36 20 18 18 5 15 33 30 24 17 19 26 29
12 11 11 11 12 12 11 11 12 9 6 5 8 13 9 4 5 5 4 4 5 4 6 5 7 12 6 9 4 5 4 2 4 10 4 3 4 22 26 28 33 32 34 29 31 14 26 24 30 26 21 25 28 30
11 9 9 11 12 11 12 10 8 7 8 6 2 3 3 3 5 6 5 4 3 4 3 5 5 5 5 7 6 3 4 3 12 4 3 3 17 17 9 14 22 22 24 29 25 28 27 29 29 29 29 26 29 28
9 8 9 9 7 5 7 8 7 5 3 3 3 4 5 5 5 6 4 2 6 7 14 16 7 4 4 4 2 5 1 3 4 4 3 5 17 19 5 9 22 30 36 27 27 31 33 34 33 30 23 25 25 26
7 8 7 5 4 6 8 9 7 5 3 4 4 5 6 9 8 8 10 12 9 12 11 9 8 5 3 3 3 4 3 3 2 4 4 15 18 10 9 16 23 28 31 31 34 29 26 31 30 27 26 27 26 24
6 6 5 4 4 6 6 6 2 5 3 4 6 5 10 9 12 8 7 10 10 8 15 7 4 2 5 4 4 7 3 4 2 4 17 17 14 10 8 17 23 30 33 32 29 26 31 34 34 32 31 28 25 22
5 4 4 3 5 6 4 2 3 5 5 4 6 10 15 17 17 18 12 10 11 13 4 5 4 6 3 3 4 3 3 2 7 12 12 12 12 8 6 15 21 28 32 31 30 32 34 32 31 32 34 30 26 23
3 4 4 5 5 7 5 5 4 4 6 10 7 9 10 15 17 17 20 19 12 5 6 1 4 3 3 3 1 4 6 15 14 10 12 10 6 3 9 14 18 21 26 27 30 33 35 27 27 31 31 30 27 23
2 3 4 5 5 5 2 4 5 5 9 8 13 16 15 16 24 23 21 20 17 16 10 5 3 2 4 1 4 14 17 14 12 9 8 5 5 7 12 16 20 24 30 33 36 38 33 36 33 34 32 29 28 25
3 2 3 6 6 3 3 4 5 5 6 4 10 11 9 12 20 19 17 14 10 6 6 3 5 6 9 12 14 16 18 12 9 3 4 8 11 15 19 25 25 27 32 33 35 34 33 31 31 31 30 29 27 25
1 1 2 4 6 7 4 4 6 6 7 7 11 10 8 11 8 7 6 5 6 4 3 7 9 16 15 16 12 14 11 10 8 4 4 11 13 18 21 25 30 33 34 35 33 30 29 30 31 29 26 23 19 20
1 3 2 4 4 3 6 8 6 6 5 8 10 5 6 4 4 4 4 6 5 8 9 12 13 11 10 7 7 7 6 5 4 3 10 16 18 24 29 33 34 34 31 31 32 31 29 28 28 25 22 21 20 19
4 5 3 4 3 4 5 6 4 4 3 4 4 3 3 2 4 10 4 4 6 5 5 10 10 8 8 3 3 2 2 3 6 9 14 17 21 28 34 34 32 32 31 28 27 27 28 25 24 24 23 23 22 21
6 3 3 3 5 4 4 4 4 4 4 3 3 4 2 3 4 4 2 4 6 10 14 13 13 11 5 4 3 3 2 3 6 9 14 21 29 31 32 32 30 29 29 30 27 27 28 27 27 26 25 25 22 21
3 4 3 4 4 3 3 3 3 3 4 3 3 3 1 3 2 2 2 5 9 7 6 3 1 5 6 5 4 5 3 4 6 14 18 28 32 32 29 27 27 28 29 29 28 28 28 29 27 25 22 20 19 17
3 5 6 3 3 3 2 3 2 3 4 3 3 4 4 2 3 3 2 14 13 17 13 5 4 4 5 4 2 4 7 7 9 12 19 26 29 30 31 31 31 28 26 23 29 31 30 27 25 22 19 15 12 12
3 4 5 6 3 2 4 6 6 4 3 3 4 4 2 3 1 2 17 21 20 17 10 4 3 3 2 1 2 8 10 15 12 10 19 24 22 24 20 25 27 25 23 25 28 30 29 25 20 16 14 14 14 14
6 4 5 4 4 5 3 3 2 3 2 4 8 3 6 7 4 11 23 27 21 16 8 8 7 7 5 2 10 13 15 16 12 15 22 20 17 15 16 19 22 25 27 26 26 24 22 18 18 19 19 17 14 11
4 3 5 5 5 6 6 5 3 4 3 4 5 4 6 10 22 27 25 19 14 9 4 7 10 10 7 6 12 15 13 17 19 23 22 19 22 22 22 25 27 27 24 20 18 16 20 23 21 17 14 10 9 9
5 10 5 4 4 4 5 9 6 10 10 9 8 11 15 21 23 13 12 14 7 9 8 9 5 8 5 7 9 16 17 20 19 24 29 26 26 27 24 22 21 19 18 16 17 21 23 22 17 13 12 14 12 11
5 11 4 4 4 7 15 13 14 16 16 15 14 14 18 14 10 6 12 9 6 7 7 5 6 5 2 9 12 15 12 15 19 24 26 26 24 22 19 18 20 19 17 17 21 23 22 17 14 12 12 14 13 10
10 9 6 4 4 6 7 5 4 4 3 3 5 4 5 4 4 5 9 5 4 4 2 6 7 7 11 20 19 17 18 20 22 22 22 23 20 21 20 20 20 18 16 16 19 19 18 16 13 11 9 8 11 11
6 7 6 4 3 3 4 4 2 4 3 2 2 2 3 3 3 3 7 6 5 1 2 7 9 15 20 22 21 20 19 19 19 19 18 18 19 19 17 17 18 20 18 17 18 19 19 16 13 11 9 12 13 13
Wind_Direction
311 317 321 324 325 324 327 330 331 333 336 342 348 350 352 349 346 344 342 331 322 276 276 259 247 246 276 242 265 336 306 197 261 241 238 221 245 181 241 203 211 209 194 190 165 204 249 161 138 190 211 245 179 173
308 316 320 323 323 323 324 326 325 326 328 331 337 342 341 340 344 335 334 314 299 274 267 281 276 266 250 244 269 265 288 312 283 282 246 282 240 243 261 238 185 242 234 233 216 213 333 192 285 216 193 180 176 168
303 312 316 318 318 319 322 322 322 324 324 324 327 331 336 333 329 320 309 318 321 296 302 288 284 293 259 245 229 241 243 221 250 272 306 288 262 195 225 227 240 204 178 223 264 221 237 244 248 271 222 178 176 172
296 304 310 314 314 315 316 316 319 321 321 320 322 326 327 325 324 314 304 308 297 291 280 280 281 285 275 276 260 235 218 238 320 300 258 256 258 207 264 317 265 5 166 194 264 276 265 261 246 233 212 174 162 164
290 301 306 307 309 311 311 313 315 316 314 315 317 319 318 319 316 315 306 302 269 230 285 290 300 306 235 307 257 226 224 233 243 289 261 243 238 229 225 283 247 197 191 195 252 339 295 288 324 217 202 173 172 174
292 296 300 304 307 308 309 309 309 310 311 312 310 308 308 313 313 329 323 16 7 208 284 297 296 289 304 295 251 216 215 212 204 215 239 259 230 216 256 250 262 222 228 231 272 265 278 279 301 203 194 173 165 170
284 291 296 301 303 303 305 306 306 308 310 310 306 301 301 301 298 288 272 274 328 130 266 294 291 286 325 335 137 180 183 187 188 210 226 239 209 190 240 244 277 315 267 262 263 259 250 197 211 179 170 161 160 158
281 287 295 300 302 303 303 304 307 308 308 305 302 302 300 295 288 282 298 248 251 247 258 273 278 299 336 256 160 160 169 195 209 223 229 215 173 217 250 241 257 271 291 271 266 219 265 176 154 150 156 148 146 145
275 284 294 299 301 303 302 302 305 308 307 301 301 303 300 297 200 321 270 275 229 209 261 225 270 289 341 334 236 178 167 180 202 215 208 171 191 218 224 235 244 259 228 252 189 167 144 135 134 140 148 148 146 146
276 284 292 295 298 303 305 305 307 313 315 309 307 288 265 123 264 306 274 206 182 211 232 247 242 257 314 332 296 274 193 213 190 207 159 216 240 237 238 240 248 245 240 186 164 164 144 129 123 124 139 152 151 150
273 285 288 291 295 300 303 304 310 317 326 328 292 253 239 276 288 238 232 193 178 232 218 234 231 249 262 228 245 233 234 209 214 174 203 208 239 228 236 237 241 246 240 213 185 236 201 135 130 135 153 162 149 153
276 281 282 289 293 296 295 305 313 313 309 275 279 288 286 221 216 248 221 183 207 243 203 217 231 214 243 217 236 225 256 215 221 143 193 247 249 280 265 244 236 224 229 227 226 235 153 134 136 145 171 162 151 159
273 271 281 288 292 292 296 301 306 300 312 296 250 258 238 237 231 219 217 211 220 217 240 330 312 250 214 219 240 248 240 209 130 174 225 243 250 288 237 201 200 210 190 181 198 188 154 142 152 151 158 160 156 153
259 271 285 287 290 305 310 305 293 282 298 243 232 252 217 209 233 212 237 325 303 281 317 317 276 254 225 217 239 254 91 168 221 159 251 278 311 316 203 171 176 172 175 180 167 157 149 148 152 154 155 162 161 161
259 276 276 250 300 322 323 312 268 233 258 253 236 243 236 249 275 282 287 288 283 291 305 301 260 234 255 257 216 299 215 227 253 123 247 278 301 312 231 173 167 165 169 171 168 167 164 158 160 160 160 162 161 158
260 262 240 234 294 324 342 350 232 206 240 240 234 249 262 271 277 280 278 289 307 309 313 251 258 246 239 155 255 224 257 207 118 167 212 267 307 321 198 187 184 175 172 165 160 164 164 156 155 159 160 160 159 160
225 221 213 261 304 320 296 259 220 225 234 238 246 242 260 276 275 279 267 272 304 319 260 218 219 206 265 217 245 212 261 330 323 318 324 314 316 317 193 168 174 176 171 162 154 154 153 153 158 161 161 163 163 160
177 219 251 275 311 319 299 216 238 245 254 248 249 264 247 256 269 271 275 287 286 242 255 211 332 240 259 242 73 348 319 317 308 306 327 345 356 105 158 160 156 161 155 156 147 146 142 153 163 168 165 165 164 159
204 270 286 297 315 306 254 223 225 259 249 260 263 270 265 268 279 281 284 284 277 265 275 253 238 265 232 287 313 312 317 320 312 343 21 48 76 135 143 152 152 156 156 153 152 153 154 171 169 168 169 165 165 164
243 253 263 251 253 265 257 241 220 253 264 267 262 265 260 267 285 288 286 269 246 218 209 232 214 232 290 302 302 298 293 288 298 317 85 117 147 148 142 143 148 151 152 152 151 152 157 163 167 169 170 169 166 164
332 251 232 221 226 229 256 247 242 243 275 258 278 286 276 281 271 268 270 220 217 231 236 243 253 278 286 290 292 297 290 285 270 253 185 146 151 146 142 146 147 149 147 152 153 154 156 160 163 167 165 164 167 162
231 219 264 230 229 245 255 239 248 274 268 271 289 241 270 275 288 288 292 224 234 229 238 256 259 282 299 297 303 296 315 324 299 170 168 156 152 148 145 145 147 148 152 151 149 150 154 156 156 158 160 157 159 160
207 222 234 229 230 237 260 244 254 241 270 278 277 251 223 215 278 290 265 256 259 265 276 276 270 273 291 282 284 354 20 136 102 129 152 161 160 150 144 144 150 150 148 147 149 149 151 152 153 154 155 157 157 158
195 200 234 234 213 270 267 245 239 270 262 247 253 270 319 265 251 246 265 290 264 298 295 286 275 274 237 205 191 181 96 111 148 140 156 156 150 147 146 146 150 153 152 149 151 152 151 153 151 146 144 146 150 154
205 218 203 247 227 245 255 257 247 254 256 274 263 249 211 280 281 259 290 262 276 31 26 36 269 201 205 199 180 173 128 112 117 142 149 154 146 144 149 152 152 153 154 151 152 152 150 148 147 146 147 151 157 165
227 211 184 228 207 205 258 282 280 309 299 284 274 305 340 322 282 288 339 309 355 16 9 14 74 147 195 221 279 173 149 142 116 140 151 158 153 151 151 150 152 153 158 159 151 150 148 150 155 158 162 167 172 170
250 239 219 228 243 281 264 262 264 270 273 277 319 319 296 238 248 300 332 351 352 1 5 53 105 108 18 301 156 168 156 170 176 165 164 165 164 156 154 152 153 150 151 155 153 155 157 159 161 159 152 149 151 152
235 243 210 180 204 223 265 286 269 265 274 305 314 298 336 357 357 333 330 342 357 6 48 69 79 82 59 66 160 162 142 144 145 150 148 151 154 150 144 143 144 146 148 151 157 159 160 162 157 147 139 137 140 148
230 220 189 222 223 213 215 217 245 246 282 321 330 321 339 324 316 322 331 347 357 18 85 70 94 61 52 105 147 157 155 159 155 146 139 137 141 138 132 135 143 154 156 157 158 155 154 160 157 151 145 138 143 142
222 201 204 219 223 233 230 212 235 275 289 297 300 298 302 307 318 330 340 359 29 59 95 111 65 16 44 140 139 156 161 163 157 162 149 148 148 147 146 146 150 154 156 155 155 152 152 155 158 158 151 156 157 144
190 185 215 217 248 255 260 272 273 276 281 284 289 281 284 303 323 356 8 24 67 72 82 59 21 28 80 169 159 146 150 160 162 161 155 153 151 152 155 158 157 155 153 155 159 161 166 164 165 163 169 179 194 181
191 190 204 217 249 262 262 257 264 264 266 260 279 272 295 295 299 355 10 61 90 113 45 38 51 61 129 132 131 127 132 137 145 148 150 153 150 149 146 151 156 160 162 165 165 164 167 176 185 191 205 208 188 180
187 194 213 270 256 219 197 192 257 283 266 259 248 258 274 278 292 334 8 56 88 91 70 32 77 127 130 121 116 115 124 132 137 141 144 149 151 149 152 154 157 157 148 148 153 159 168 182 196 204 203 175 174 168